Greybull, WY

5:40 AM MDT on September 27, 2016 (GMT -0600)
South Big Horn County

Weather History for KGEY - November, 2013

Change the Weather History Date:

Sunday, November 17, 2013

  Actual Average Record
Temperature  
Mean Temperature 33 °F 30 °F  
Max Temperature 45 °F 42 °F 66 °F (1999)
Min Temperature 21 °F 17 °F -20 °F (2014)
Degree Days  
Heating Degree Days 32 35  
Month to date heating degree days 467 518  
Since 1 July heating degree days 1276 1340  
Cooling Degree Days 0 0  
Month to date cooling degree days 0 0  
Year to date cooling degree days 1005 669  
Moisture  
Dew Point 18 °F    
Average Humidity 64    
Maximum Humidity 100    
Minimum Humidity 27    
Precipitation  
Precipitation 0.00 in 0.01 in 0.05 in (2005)
Month to date precipitation T 0.16  
Year to date precipitation 4.85 7.09  
Sea Level Pressure  
Sea Level Pressure 29.90 in    
Wind  
Wind Speed 5 mph (SE)    
Max Wind Speed 15 mph    
Max Gust Speed 19 mph    
Visibility 10 miles    
Events      
T = Trace of Precipitation, MM = Missing Value Source: NWS Daily Summary

Daily Weather History Graph

Daily Weather History Graph

Search for Another Location

Airport or City:

Trip Planner

Search our weather history database for the weather conditions in past years. The results will help you decide how hot, cold, wet, or windy it might be!

Date:

Astronomy

Nov. 17, 2013 Rise Set
Actual Time 7:11 AM MST 4:42 PM MST
Civil Twilight 6:40 AM MST 5:14 PM MST
Nautical Twilight 6:04 AM MST 5:49 PM MST
Astronomical Twilight 5:30 AM MST 6:24 PM MST
Moon 5:01 PM MST (11/17) 7:08 AM MST (11/17)
Length of Visible Light 10h 34m
Length of Day
9h 30m
Full, 100% of the Moon is Illuminated
Nov 17
Full
Nov 25
Last Quarter
Dec 2
New
Dec 9
First Quarter
Dec 17
Full

Hourly Weather History & Observations

Time (MST) Temp. Windchill Dew Point Humidity Pressure Visibility Wind Dir Wind Speed Gust Speed Precip Events Conditions
12:53 AM 32.0 °F 23.6 °F 27.0 °F 82% 29.56 in 10.0 mi West 10.4 mph - N/A   Overcast
1:53 AM 32.0 °F 26.4 °F 26.1 °F 79% 29.60 in 10.0 mi North 5.8 mph - N/A   Overcast
2:53 AM 28.9 °F 25.2 °F 23.0 °F 78% 29.65 in 10.0 mi NW 3.5 mph - N/A   Scattered Clouds
3:53 AM 25.0 °F 20.7 °F 19.9 °F 81% 29.70 in 10.0 mi WNW 3.5 mph - N/A   Mostly Cloudy
4:53 AM 24.1 °F 18.2 °F 18.0 °F 77% 29.75 in 10.0 mi WSW 4.6 mph - N/A   Mostly Cloudy
5:53 AM 23.0 °F 17.0 °F 19.0 °F 85% 29.79 in 10.0 mi ESE 4.6 mph - N/A   Clear
6:53 AM 21.9 °F 13.4 °F 17.1 °F 82% 29.84 in 10.0 mi ESE 6.9 mph - N/A   Clear
7:53 AM 23.0 °F 15.8 °F 18.0 °F 81% 29.89 in 10.0 mi SSE 5.8 mph - N/A   Clear
8:53 AM 27.0 °F 21.6 °F 19.9 °F 75% 29.92 in 10.0 mi ESE 4.6 mph - N/A   Partly Cloudy
9:53 AM 32.0 °F 27.5 °F 23.0 °F 69% 29.93 in 10.0 mi SE 4.6 mph - N/A   Scattered Clouds
10:53 AM 37.9 °F 31.5 °F 21.9 °F 53% 29.93 in 10.0 mi SE 9.2 mph - N/A   Clear
11:53 AM 39.9 °F 34.5 °F 19.0 °F 43% 29.91 in 10.0 mi SE 8.1 mph - N/A   Clear
12:53 PM 43.0 °F 40.3 °F 15.1 °F 32% 29.90 in 10.0 mi Variable 4.6 mph - N/A   Clear
1:53 PM 44.1 °F 38.6 °F 14.0 °F 30% 29.91 in 10.0 mi South 10.4 mph - N/A   Overcast
2:53 PM 45.0 °F 39.3 °F 12.9 °F 27% 29.92 in 10.0 mi South 11.5 mph - N/A   Scattered Clouds
3:53 PM 44.1 °F 40.1 °F 12.0 °F 27% 29.95 in 10.0 mi South 6.9 mph - N/A   Clear
4:53 PM 39.9 °F - 12.9 °F 33% 29.99 in 10.0 mi Calm Calm - N/A   Clear
5:53 PM 37.0 °F - 12.9 °F 37% 30.03 in 10.0 mi Calm Calm - N/A   Clear
6:53 PM 36.0 °F 33.3 °F 14.0 °F 41% 30.05 in 10.0 mi ESE 3.5 mph - N/A   Clear
7:53 PM 32.0 °F 26.4 °F 15.1 °F 50% 30.07 in 10.0 mi ESE 5.8 mph - N/A   Clear
8:53 PM 28.9 °F 21.1 °F 17.1 °F 61% 30.09 in 10.0 mi SE 8.1 mph - N/A   Clear
9:53 PM 27.0 °F 20.5 °F 16.0 °F 63% 30.08 in 10.0 mi SSE 5.8 mph - N/A   Clear
10:53 PM 23.0 °F - 15.1 °F 72% 30.08 in 10.0 mi Calm Calm - N/A   Clear
11:53 PM 24.1 °F - 16.0 °F 71% 30.09 in 10.0 mi Calm Calm - N/A   Clear